GFSMA_prec_pwat_162.txt.gz
Precipitable_Water
1.39 1.45 1.45 1.48 1.42 1.46 1.45 1.54 1.72 1.79 1.87 1.76 1.80 1.74 1.73 1.82 1.91 1.90 1.85 1.78 1.71 1.66 1.66 1.70 1.59 1.42 1.29 1.34 1.43 1.52 1.61 1.69 1.75 1.75 1.71 1.72 1.67 1.57 1.58 1.55 1.50 1.48 1.49
1.46 1.34 1.47 1.45 1.44 1.42 1.57 1.65 1.76 1.72 1.76 1.87 1.80 1.76 1.75 1.83 1.94 1.83 1.76 1.86 1.84 1.61 1.51 1.47 1.48 1.44 1.39 1.41 1.45 1.52 1.61 1.69 1.71 1.70 1.73 1.74 1.66 1.54 1.56 1.57 1.59 1.54 1.47
1.54 1.51 1.46 1.38 1.63 1.58 1.57 1.70 1.77 1.85 1.55 1.73 1.65 1.70 1.66 1.78 1.96 1.81 1.73 1.72 1.89 1.61 1.51 1.39 1.43 1.49 1.45 1.44 1.50 1.57 1.65 1.68 1.71 1.72 1.74 1.76 1.70 1.56 1.43 1.28 1.28 1.31 1.38
1.60 1.48 1.52 1.54 1.65 1.56 1.60 1.67 1.73 1.62 1.74 1.69 1.65 1.66 1.70 1.57 1.62 1.72 1.75 1.72 1.80 1.67 1.50 1.60 1.43 1.48 1.50 1.46 1.50 1.59 1.71 1.75 1.80 1.79 1.76 1.78 1.75 1.67 1.47 1.28 1.31 1.30 1.26
1.55 1.49 1.66 1.56 1.59 1.50 1.68 1.43 1.68 1.58 1.70 1.69 1.47 1.71 1.67 1.54 1.61 1.73 1.86 1.84 1.84 1.80 1.65 1.73 1.72 1.51 1.57 1.55 1.52 1.58 1.69 1.73 1.75 1.76 1.72 1.74 1.75 1.71 1.58 1.36 1.34 1.49 1.45
1.75 1.54 1.53 1.42 1.46 1.36 1.53 1.54 1.56 1.64 1.75 1.59 1.48 1.60 1.62 1.61 1.65 1.55 1.67 1.84 1.83 1.82 1.79 1.79 1.71 1.65 1.59 1.61 1.60 1.64 1.71 1.77 1.69 1.66 1.62 1.60 1.63 1.66 1.68 1.52 1.27 1.32 1.41
1.66 1.69 1.54 1.42 1.39 1.32 1.45 1.36 1.49 1.47 1.57 1.59 1.37 1.54 1.50 1.57 1.61 1.71 1.81 1.78 1.86 1.76 1.78 1.77 1.68 1.61 1.66 1.71 1.64 1.67 1.74 1.71 1.68 1.65 1.59 1.54 1.53 1.56 1.60 1.57 1.48 1.27 1.33
1.37 1.36 1.35 1.46 1.42 1.33 1.43 1.43 1.32 1.35 1.57 1.68 1.39 1.45 1.37 1.46 1.76 1.82 1.83 1.79 1.74 1.79 1.84 1.91 1.84 1.78 1.74 1.77 1.70 1.68 1.74 1.76 1.69 1.65 1.64 1.64 1.58 1.53 1.51 1.52 1.46 1.33 1.33
1.56 1.39 1.38 1.46 1.42 1.43 1.36 1.43 1.45 1.49 1.46 1.66 1.75 1.38 1.19 1.21 1.55 1.73 1.72 1.77 1.90 1.75 1.92 1.95 1.94 1.90 1.87 1.89 1.77 1.71 1.75 1.77 1.70 1.60 1.58 1.55 1.64 1.71 1.64 1.50 1.39 1.40 1.13
1.52 1.43 1.35 1.36 1.40 1.45 1.36 1.55 1.60 1.64 1.60 1.48 1.66 1.56 1.46 1.41 1.18 1.30 1.63 1.63 1.88 1.79 1.92 1.95 1.84 1.95 2.07 1.83 1.78 1.76 1.84 1.86 1.83 1.70 1.64 1.66 1.64 1.61 1.65 1.73 1.72 1.38 1.23
1.60 1.56 1.49 1.51 1.45 1.36 1.42 1.50 1.63 1.69 1.66 1.61 1.48 1.43 1.42 1.42 1.49 1.31 1.27 1.51 1.69 1.73 1.87 1.82 1.77 1.91 2.05 1.95 1.86 1.88 1.93 1.93 1.91 1.89 1.82 1.77 1.76 1.81 1.86 1.89 1.78 1.80 1.52
1.63 1.57 1.48 1.44 1.45 1.38 1.52 1.60 1.78 1.67 1.69 1.73 1.65 1.36 1.44 1.38 1.35 1.33 1.27 1.28 1.40 1.67 1.97 1.94 1.84 2.10 2.11 2.11 2.06 2.11 2.07 2.01 1.99 2.01 1.95 1.95 1.91 1.93 1.95 1.96 1.99 1.92 1.86
1.57 1.56 1.55 1.55 1.57 1.62 1.69 1.72 1.69 1.67 1.66 1.62 1.54 1.37 1.57 1.54 1.52 1.49 1.43 1.35 1.45 1.67 1.84 2.00 2.05 2.20 2.26 2.19 2.18 2.16 2.15 2.04 2.01 1.99 1.99 1.99 2.03 2.02 1.98 1.94 1.96 2.06 2.04
1.61 1.72 1.66 1.64 1.63 1.65 1.75 1.82 1.77 1.68 1.59 1.55 1.60 1.51 1.49 1.60 1.74 1.68 1.54 1.52 1.38 1.53 1.74 1.83 2.15 2.07 2.13 2.22 2.20 2.19 2.20 2.15 2.06 2.01 1.93 1.96 1.99 1.99 2.00 1.96 1.98 2.00 2.06
1.67 1.76 1.75 1.80 1.77 1.71 1.72 1.69 1.71 1.66 1.63 1.66 1.58 1.67 1.64 1.63 1.80 1.58 1.67 1.76 1.55 1.35 1.49 1.83 1.90 1.93 2.04 2.21 2.10 2.08 2.12 2.15 2.01 1.95 1.93 1.91 1.95 1.96 1.98 2.03 2.07 2.07 2.06
1.73 1.94 1.75 1.88 1.86 1.77 1.77 1.67 1.68 1.76 1.65 1.58 1.62 1.67 1.85 1.71 1.68 1.58 1.78 1.82 1.76 1.59 1.35 1.68 1.77 2.00 2.11 2.18 2.41 2.34 2.27 2.19 2.14 2.07 2.04 2.00 1.99 1.99 1.97 1.98 2.00 2.01 2.01
1.78 1.80 1.86 1.89 1.87 1.75 1.75 1.69 1.69 1.59 1.53 1.63 1.69 1.67 1.82 1.82 1.64 1.55 1.64 1.72 1.76 1.61 1.40 1.51 1.73 1.93 1.98 2.16 2.28 2.36 2.30 2.21 2.15 2.20 2.13 2.09 2.03 1.99 1.96 1.95 1.95 1.95 1.96
1.75 1.81 1.81 1.81 1.71 1.64 1.73 1.70 1.67 1.57 1.55 1.60 1.70 1.75 1.72 1.84 1.65 1.57 1.58 1.52 1.67 1.76 1.64 1.62 1.93 1.95 2.02 2.17 2.22 2.18 2.19 2.19 2.15 2.14 2.11 2.07 2.04 1.98 1.94 1.92 1.90 1.89 1.89
1.74 1.83 1.78 1.63 1.62 1.49 1.58 1.62 1.59 1.61 1.65 1.68 1.78 1.84 1.81 1.76 1.68 1.75 1.81 1.64 1.71 1.86 1.89 1.80 1.78 1.92 1.95 2.02 1.99 2.00 2.01 2.02 2.07 2.05 2.03 2.00 1.99 1.98 1.96 1.94 1.93 1.92 1.92
1.63 1.64 1.59 1.58 1.48 1.40 1.55 1.63 1.60 1.67 1.75 1.75 1.88 1.90 1.89 1.89 1.77 1.85 1.88 1.79 1.69 1.73 1.84 1.76 1.70 1.70 1.76 1.87 1.90 1.78 1.74 1.86 1.81 1.94 1.95 1.93 1.94 1.93 1.93 1.90 1.88 1.86 1.82
1.54 1.51 1.53 1.55 1.55 1.52 1.55 1.60 1.58 1.64 1.68 1.74 1.80 1.76 1.95 2.00 2.00 1.94 1.83 1.86 1.80 1.67 1.67 1.61 1.62 1.66 1.67 1.70 1.66 1.76 1.71 1.77 1.84 1.85 1.83 1.83 1.83 1.80 1.82 1.82 1.79 1.71 1.63
1.57 1.59 1.50 1.52 1.53 1.55 1.59 1.60 1.56 1.50 1.52 1.56 1.54 1.68 1.82 1.89 1.94 2.00 2.03 2.08 2.03 1.81 1.74 1.70 1.67 1.61 1.64 1.67 1.71 1.67 1.63 1.57 1.51 1.83 1.76 1.76 1.83 1.77 1.81 1.81 1.71 1.62 1.60
1.65 1.64 1.62 1.59 1.58 1.53 1.54 1.52 1.56 1.58 1.55 1.54 1.57 1.58 1.62 1.76 1.82 1.87 1.90 1.98 1.95 1.91 1.92 1.83 1.66 1.65 1.62 1.67 1.67 1.62 1.65 1.64 1.60 1.73 1.71 1.62 1.76 1.68 1.71 1.62 1.56 1.51 1.47
1.73 1.65 1.66 1.73 1.69 1.65 1.64 1.54 1.48 1.49 1.53 1.59 1.61 1.61 1.61 1.59 1.64 1.65 1.76 1.84 1.82 1.86 1.87 1.86 1.79 1.72 1.70 1.66 1.71 1.79 1.71 1.70 1.82 1.81 1.76 1.46 1.58 1.51 1.51 1.41 1.32 1.30 1.25
1.69 1.85 1.85 1.84 1.86 1.79 1.86 1.83 1.73 1.61 1.53 1.57 1.71 1.76 1.73 1.63 1.59 1.61 1.57 1.54 1.63 1.70 1.76 1.73 1.63 1.57 1.60 1.75 1.91 1.83 1.70 1.58 1.53 1.59 1.70 1.54 1.52 1.41 1.35 1.29 1.26 1.21 1.11
2.06 2.07 2.05 2.07 2.00 1.90 1.96 1.98 2.00 1.96 1.82 1.79 1.82 1.84 1.86 1.87 1.78 1.70 1.61 1.53 1.47 1.53 1.57 1.52 1.53 1.60 1.71 1.83 1.97 1.93 1.81 1.58 1.52 1.44 1.60 1.42 1.42 1.31 1.16 1.25 1.21 1.20 1.10

GFSMA_prec_pwat_165.txt.gz
Precipitable_Water
1.42 1.38 1.34 1.40 1.35 1.44 1.52 1.53 1.68 1.75 1.79 1.63 1.67 1.72 1.67 1.79 1.86 1.84 1.79 1.68 1.64 1.59 1.58 1.66 1.57 1.37 1.42 1.46 1.51 1.59 1.66 1.74 1.75 1.77 1.79 1.83 1.78 1.68 1.67 1.65 1.57 1.50 1.51
1.46 1.41 1.40 1.37 1.33 1.39 1.56 1.56 1.62 1.65 1.66 1.66 1.67 1.66 1.68 1.72 1.73 1.70 1.66 1.68 1.67 1.61 1.55 1.61 1.57 1.43 1.46 1.49 1.56 1.63 1.72 1.74 1.74 1.76 1.77 1.80 1.76 1.67 1.61 1.59 1.58 1.51 1.48
1.44 1.45 1.47 1.37 1.47 1.56 1.54 1.67 1.75 1.81 1.59 1.70 1.61 1.64 1.80 1.78 1.76 1.68 1.66 1.61 1.63 1.52 1.57 1.54 1.62 1.57 1.51 1.54 1.58 1.65 1.71 1.75 1.74 1.75 1.78 1.75 1.71 1.66 1.53 1.42 1.40 1.50 1.50
1.52 1.50 1.46 1.55 1.61 1.59 1.62 1.73 1.70 1.66 1.77 1.64 1.50 1.63 1.67 1.70 1.68 1.65 1.69 1.63 1.65 1.53 1.66 1.64 1.52 1.57 1.56 1.57 1.61 1.69 1.74 1.81 1.84 1.82 1.81 1.81 1.76 1.69 1.52 1.29 1.28 1.26 1.27
1.65 1.49 1.62 1.66 1.73 1.64 1.67 1.60 1.70 1.56 1.61 1.66 1.52 1.64 1.65 1.57 1.60 1.73 1.75 1.74 1.62 1.65 1.69 1.72 1.71 1.61 1.68 1.67 1.69 1.78 1.77 1.76 1.76 1.75 1.77 1.78 1.77 1.77 1.65 1.45 1.26 1.36 1.36
1.50 1.60 1.67 1.70 1.59 1.50 1.58 1.58 1.65 1.66 1.68 1.62 1.49 1.57 1.57 1.60 1.62 1.61 1.70 1.76 1.64 1.76 1.76 1.69 1.77 1.76 1.74 1.78 1.79 1.76 1.70 1.65 1.66 1.64 1.64 1.63 1.67 1.72 1.71 1.51 1.30 1.33 1.40
1.78 1.75 1.75 1.62 1.45 1.41 1.48 1.47 1.55 1.51 1.57 1.58 1.39 1.56 1.46 1.53 1.67 1.68 1.75 1.74 1.68 1.77 1.78 1.72 1.69 1.69 1.71 1.74 1.76 1.75 1.74 1.71 1.62 1.60 1.60 1.59 1.57 1.57 1.63 1.62 1.46 1.27 1.35
1.63 1.68 1.56 1.46 1.46 1.35 1.42 1.43 1.44 1.34 1.49 1.60 1.41 1.43 1.29 1.48 1.67 1.78 1.77 1.74 1.76 1.83 1.80 1.85 1.86 1.71 1.77 1.77 1.74 1.75 1.72 1.71 1.62 1.57 1.61 1.64 1.62 1.54 1.49 1.50 1.47 1.40 1.29
1.52 1.48 1.41 1.40 1.46 1.45 1.35 1.39 1.45 1.39 1.30 1.59 1.75 1.50 1.27 1.23 1.50 1.71 1.70 1.81 1.78 1.78 1.90 1.96 1.87 1.84 1.84 1.90 1.77 1.78 1.80 1.79 1.69 1.55 1.55 1.53 1.58 1.68 1.67 1.50 1.35 1.36 1.19
1.58 1.48 1.42 1.36 1.33 1.36 1.33 1.44 1.57 1.52 1.51 1.48 1.72 1.60 1.59 1.51 1.21 1.33 1.57 1.65 1.84 1.75 1.86 1.90 1.88 2.04 1.97 1.90 1.88 1.86 1.90 1.92 1.88 1.75 1.64 1.70 1.66 1.63 1.63 1.66 1.72 1.38 1.25
1.54 1.51 1.48 1.31 1.31 1.48 1.44 1.44 1.59 1.56 1.57 1.51 1.53 1.44 1.40 1.42 1.44 1.28 1.26 1.46 1.69 1.73 1.80 1.87 1.87 1.85 2.01 1.95 2.00 2.00 1.99 1.95 1.97 1.98 1.88 1.84 1.86 1.94 1.99 1.96 1.84 1.79 1.60
1.53 1.62 1.60 1.58 1.57 1.52 1.42 1.45 1.61 1.63 1.60 1.58 1.70 1.54 1.36 1.35 1.34 1.32 1.27 1.30 1.33 1.71 1.92 1.92 1.89 2.03 2.08 2.13 2.15 2.11 2.07 2.00 1.97 2.00 1.97 1.99 2.00 2.00 2.00 1.99 2.05 1.97 1.91
1.47 1.58 1.58 1.56 1.52 1.56 1.53 1.59 1.63 1.72 1.69 1.69 1.67 1.51 1.47 1.49 1.54 1.44 1.44 1.37 1.38 1.65 1.80 1.93 2.05 2.21 2.21 2.17 2.13 2.12 2.12 2.05 2.02 2.00 1.96 1.99 2.00 2.00 1.97 1.94 1.95 2.09 2.09
1.66 1.66 1.63 1.63 1.63 1.67 1.69 1.73 1.74 1.68 1.72 1.69 1.65 1.58 1.45 1.53 1.70 1.63 1.53 1.46 1.37 1.51 1.65 1.77 2.11 2.19 2.10 2.17 2.22 2.16 2.12 2.10 2.01 1.94 1.93 1.90 1.95 1.96 1.98 1.98 2.00 2.04 2.11
1.78 1.79 1.69 1.65 1.63 1.68 1.68 1.80 1.80 1.78 1.73 1.66 1.65 1.66 1.57 1.55 1.76 1.80 1.64 1.66 1.55 1.38 1.45 1.78 1.86 2.13 2.05 2.18 2.21 2.16 2.10 2.10 2.14 2.03 1.99 1.98 2.00 2.00 2.01 2.02 2.05 2.09 2.11
1.70 1.77 1.71 1.71 1.74 1.80 1.76 1.74 1.59 1.70 1.68 1.67 1.70 1.62 1.66 1.73 1.68 1.68 1.59 1.81 1.76 1.61 1.38 1.65 1.75 1.92 2.06 2.15 2.27 2.27 2.22 2.19 2.15 2.10 2.11 2.05 2.04 2.03 2.02 2.03 2.04 2.05 2.04
1.67 1.72 1.75 1.79 1.77 1.91 1.89 1.76 1.66 1.66 1.69 1.64 1.65 1.72 1.70 1.91 1.77 1.60 1.57 1.69 1.80 1.76 1.44 1.50 1.61 1.84 1.97 2.01 2.23 2.26 2.26 2.18 2.16 2.08 2.11 2.07 2.04 2.03 2.01 2.02 2.00 2.00 2.00
1.61 1.71 1.71 1.73 1.84 1.87 1.83 1.75 1.68 1.67 1.61 1.53 1.56 1.77 1.70 1.84 1.81 1.78 1.59 1.50 1.52 1.69 1.63 1.50 1.78 1.92 1.97 2.10 2.11 2.08 2.06 2.08 2.02 2.00 2.01 1.99 1.98 1.94 1.95 1.95 1.95 1.94 1.93
1.52 1.57 1.68 1.68 1.74 1.82 1.84 1.69 1.74 1.75 1.63 1.59 1.65 1.66 1.70 1.78 1.75 1.75 1.59 1.62 1.58 1.71 1.77 1.75 1.74 1.90 1.93 1.97 1.91 1.93 1.92 1.93 1.96 1.96 1.94 1.93 1.94 1.92 1.91 1.91 1.92 1.92 1.91
1.62 1.53 1.61 1.75 1.74 1.74 1.62 1.58 1.59 1.63 1.61 1.74 1.77 1.80 1.86 1.86 1.84 1.74 1.77 1.84 1.82 1.64 1.71 1.78 1.75 1.75 1.77 1.85 1.83 1.75 1.72 1.83 1.80 1.87 1.87 1.99 1.94 1.89 1.90 1.91 1.86 1.85 1.82
1.67 1.63 1.63 1.70 1.67 1.62 1.57 1.50 1.51 1.60 1.59 1.70 1.79 1.82 1.89 1.89 1.94 2.00 1.87 1.86 1.89 1.81 1.62 1.63 1.62 1.61 1.66 1.70 1.67 1.75 1.68 1.69 1.71 1.73 1.84 1.72 1.74 1.74 1.78 1.78 1.76 1.72 1.65
1.61 1.61 1.56 1.53 1.50 1.55 1.55 1.53 1.54 1.53 1.57 1.67 1.70 1.76 1.83 1.78 1.97 2.02 2.01 2.03 1.95 1.87 1.77 1.72 1.67 1.64 1.68 1.73 1.78 1.67 1.61 1.51 1.45 1.86 1.67 1.71 1.78 1.75 1.78 1.77 1.73 1.61 1.54
1.65 1.57 1.53 1.58 1.51 1.53 1.59 1.61 1.59 1.60 1.55 1.52 1.54 1.57 1.61 1.73 1.80 1.84 1.88 1.98 2.01 2.07 2.00 1.87 1.74 1.74 1.71 1.76 1.76 1.64 1.55 1.52 1.60 1.76 1.71 1.61 1.77 1.72 1.75 1.73 1.64 1.54 1.44
1.62 1.60 1.60 1.62 1.64 1.62 1.62 1.63 1.61 1.59 1.57 1.60 1.62 1.62 1.57 1.66 1.74 1.70 1.69 1.69 1.82 1.89 1.91 1.89 1.86 1.83 1.82 1.79 1.70 1.65 1.63 1.79 1.84 1.84 1.85 1.58 1.72 1.61 1.64 1.62 1.49 1.33 1.29
1.74 1.70 1.69 1.62 1.62 1.69 1.71 1.76 1.69 1.64 1.57 1.50 1.49 1.54 1.58 1.62 1.69 1.73 1.62 1.52 1.48 1.60 1.77 1.80 1.83 1.73 1.64 1.61 1.65 1.65 1.60 1.64 1.62 1.67 1.81 1.63 1.60 1.58 1.56 1.42 1.37 1.31 1.24
1.79 1.85 1.82 1.85 1.79 1.80 1.88 1.90 1.86 1.82 1.73 1.63 1.61 1.56 1.57 1.65 1.75 1.80 1.71 1.53 1.39 1.45 1.51 1.52 1.53 1.58 1.65 1.68 1.74 1.73 1.68 1.54 1.52 1.50 1.69 1.51 1.50 1.40 1.25 1.30 1.27 1.23 1.16

GFSMA_prec_pwat_168.txt.gz
Precipitable_Water
1.45 1.40 1.36 1.43 1.39 1.45 1.49 1.58 1.68 1.77 1.81 1.76 1.80 1.76 1.74 1.78 1.81 1.77 1.69 1.63 1.52 1.41 1.51 1.52 1.42 1.42 1.46 1.49 1.52 1.63 1.70 1.71 1.71 1.74 1.79 1.79 1.78 1.75 1.66 1.60 1.55 1.51 1.52
1.48 1.41 1.34 1.40 1.41 1.44 1.55 1.55 1.66 1.71 1.74 1.77 1.76 1.72 1.76 1.71 1.74 1.69 1.64 1.66 1.53 1.42 1.46 1.45 1.41 1.41 1.47 1.52 1.56 1.67 1.71 1.73 1.71 1.75 1.75 1.76 1.77 1.75 1.67 1.58 1.62 1.58 1.53
1.51 1.42 1.42 1.38 1.40 1.47 1.53 1.62 1.71 1.82 1.79 1.76 1.65 1.72 1.78 1.77 1.70 1.66 1.60 1.58 1.54 1.57 1.45 1.46 1.47 1.46 1.50 1.59 1.64 1.74 1.75 1.76 1.80 1.74 1.68 1.70 1.73 1.72 1.65 1.54 1.50 1.59 1.58
1.52 1.53 1.44 1.38 1.52 1.61 1.65 1.69 1.63 1.75 1.81 1.73 1.58 1.67 1.64 1.75 1.66 1.65 1.66 1.59 1.64 1.57 1.59 1.50 1.51 1.55 1.60 1.66 1.74 1.83 1.83 1.82 1.86 1.86 1.79 1.74 1.70 1.73 1.60 1.44 1.32 1.30 1.33
1.55 1.52 1.50 1.64 1.66 1.67 1.62 1.65 1.64 1.69 1.69 1.74 1.57 1.58 1.63 1.56 1.62 1.76 1.76 1.66 1.71 1.69 1.65 1.71 1.65 1.67 1.74 1.76 1.76 1.75 1.75 1.77 1.77 1.76 1.75 1.73 1.76 1.75 1.71 1.46 1.27 1.34 1.31
1.57 1.55 1.60 1.72 1.71 1.65 1.61 1.57 1.58 1.71 1.63 1.62 1.51 1.51 1.50 1.59 1.63 1.63 1.73 1.77 1.71 1.73 1.69 1.66 1.75 1.73 1.74 1.78 1.77 1.78 1.75 1.69 1.66 1.66 1.66 1.63 1.67 1.70 1.70 1.57 1.37 1.34 1.44
1.57 1.64 1.75 1.67 1.58 1.50 1.50 1.54 1.55 1.48 1.48 1.61 1.40 1.49 1.44 1.64 1.71 1.78 1.78 1.74 1.75 1.79 1.81 1.70 1.68 1.71 1.69 1.73 1.76 1.75 1.74 1.69 1.64 1.62 1.62 1.60 1.58 1.58 1.65 1.65 1.49 1.27 1.33
1.73 1.80 1.74 1.67 1.56 1.45 1.41 1.38 1.45 1.37 1.36 1.54 1.41 1.34 1.27 1.43 1.68 1.82 1.76 1.78 1.84 1.89 1.83 1.83 1.82 1.70 1.69 1.75 1.77 1.77 1.73 1.73 1.62 1.60 1.64 1.66 1.64 1.59 1.52 1.53 1.54 1.45 1.28
1.62 1.71 1.72 1.54 1.44 1.45 1.39 1.40 1.48 1.46 1.26 1.45 1.66 1.51 1.20 1.18 1.54 1.72 1.68 1.79 1.78 1.84 1.88 1.89 1.87 1.80 1.83 1.85 1.85 1.90 1.87 1.81 1.70 1.57 1.58 1.59 1.59 1.68 1.72 1.57 1.42 1.41 1.28
1.59 1.55 1.64 1.55 1.43 1.40 1.39 1.38 1.53 1.52 1.50 1.37 1.63 1.71 1.58 1.56 1.32 1.37 1.71 1.71 1.85 1.74 1.84 1.88 1.91 1.93 1.99 1.98 1.95 1.96 1.96 1.95 1.94 1.79 1.69 1.77 1.82 1.83 1.78 1.71 1.74 1.46 1.30
1.60 1.56 1.54 1.50 1.42 1.43 1.42 1.44 1.48 1.57 1.57 1.45 1.47 1.46 1.44 1.49 1.47 1.30 1.25 1.47 1.72 1.76 1.84 1.93 1.94 1.88 2.03 2.04 2.13 2.09 2.05 2.00 2.01 2.01 1.98 1.98 2.01 2.03 2.05 2.03 1.92 1.81 1.69
1.53 1.51 1.57 1.57 1.49 1.47 1.53 1.52 1.44 1.54 1.58 1.55 1.55 1.57 1.46 1.31 1.35 1.31 1.27 1.33 1.41 1.69 1.89 1.99 1.95 2.00 2.10 2.20 2.20 2.17 2.12 2.03 2.00 2.00 2.00 1.99 2.00 2.02 2.03 1.98 2.09 2.09 1.98
1.50 1.47 1.57 1.54 1.55 1.58 1.58 1.59 1.50 1.58 1.64 1.62 1.56 1.54 1.56 1.44 1.48 1.47 1.40 1.33 1.37 1.59 1.78 2.00 2.05 2.17 2.20 2.20 2.17 2.19 2.17 2.09 2.03 1.98 1.92 1.91 1.96 1.99 1.97 1.97 1.96 2.06 2.15
1.55 1.60 1.57 1.61 1.61 1.53 1.58 1.69 1.69 1.70 1.69 1.72 1.61 1.65 1.55 1.45 1.58 1.58 1.49 1.50 1.38 1.48 1.62 1.72 2.08 2.20 2.25 2.21 2.21 2.23 2.10 2.07 2.05 1.97 1.96 1.92 1.97 1.99 1.99 2.00 2.03 2.05 2.09
1.50 1.61 1.66 1.54 1.58 1.55 1.58 1.66 1.65 1.74 1.75 1.66 1.63 1.61 1.55 1.55 1.62 1.72 1.75 1.60 1.46 1.35 1.48 1.75 1.86 2.16 2.18 2.20 2.23 2.21 2.25 2.14 2.14 2.13 2.06 2.07 2.04 2.04 2.05 2.06 2.08 2.10 2.12
1.52 1.55 1.60 1.64 1.59 1.63 1.70 1.70 1.64 1.68 1.69 1.67 1.71 1.66 1.59 1.57 1.63 1.83 1.77 1.65 1.72 1.64 1.44 1.68 1.79 1.94 2.04 2.14 2.26 2.27 2.27 2.25 2.22 2.15 2.08 2.12 2.07 2.06 2.07 2.07 2.08 2.09 2.07
1.56 1.56 1.61 1.64 1.63 1.65 1.73 1.78 1.76 1.66 1.57 1.65 1.69 1.62 1.63 1.68 1.71 1.80 1.71 1.66 1.72 1.83 1.59 1.60 1.66 1.78 1.90 2.01 2.13 2.24 2.25 2.19 2.15 2.09 2.00 1.98 1.97 1.95 1.96 1.97 2.00 2.01 2.01
1.66 1.61 1.61 1.62 1.61 1.73 1.74 1.85 1.83 1.73 1.58 1.60 1.65 1.60 1.57 1.79 1.78 1.85 1.78 1.58 1.57 1.66 1.56 1.50 1.66 1.81 1.95 2.09 2.11 2.07 2.06 2.06 2.01 2.01 1.95 1.93 1.91 1.88 1.89 1.92 1.91 1.92 1.94
1.56 1.63 1.61 1.59 1.61 1.68 1.73 1.76 1.79 1.72 1.66 1.67 1.65 1.57 1.59 1.68 1.69 1.81 1.78 1.67 1.55 1.60 1.61 1.63 1.65 1.89 1.97 2.00 1.91 1.93 1.91 1.94 1.98 1.96 1.92 1.89 1.85 1.95 1.93 1.88 1.87 1.90 1.89
1.54 1.57 1.58 1.56 1.60 1.67 1.74 1.80 1.82 1.70 1.68 1.75 1.67 1.66 1.73 1.76 1.73 1.86 1.83 1.75 1.72 1.74 1.70 1.60 1.65 1.82 1.88 1.94 1.89 1.73 1.71 1.86 1.80 1.84 1.79 1.81 1.89 1.93 1.79 1.80 1.87 1.85 1.83
1.60 1.58 1.58 1.56 1.53 1.68 1.74 1.71 1.67 1.56 1.53 1.58 1.60 1.68 1.74 1.78 1.89 1.99 1.91 1.84 1.78 1.81 1.84 1.72 1.57 1.68 1.73 1.70 1.63 1.78 1.71 1.72 1.70 1.69 1.67 1.70 1.74 1.75 1.76 1.75 1.81 1.74 1.69
1.65 1.64 1.59 1.58 1.51 1.64 1.75 1.67 1.63 1.51 1.47 1.42 1.48 1.61 1.77 1.83 1.86 1.93 1.90 2.00 2.02 1.88 1.74 1.74 1.71 1.61 1.68 1.74 1.82 1.76 1.72 1.58 1.43 1.71 1.59 1.64 1.75 1.77 1.78 1.78 1.79 1.71 1.68
1.65 1.59 1.58 1.63 1.59 1.63 1.67 1.62 1.61 1.59 1.55 1.54 1.57 1.60 1.67 1.77 1.80 1.80 1.76 1.89 1.97 2.00 2.03 1.95 1.84 1.81 1.75 1.84 1.86 1.74 1.69 1.60 1.49 1.59 1.70 1.68 1.74 1.72 1.79 1.78 1.75 1.67 1.60
1.61 1.63 1.64 1.63 1.56 1.55 1.66 1.70 1.70 1.67 1.63 1.62 1.59 1.56 1.54 1.56 1.61 1.58 1.62 1.63 1.68 1.74 1.83 1.92 1.93 1.92 1.90 1.93 1.89 1.82 1.73 1.58 1.58 1.67 1.71 1.46 1.72 1.67 1.72 1.68 1.63 1.51 1.41
1.79 1.72 1.70 1.61 1.51 1.46 1.52 1.57 1.63 1.61 1.61 1.59 1.64 1.63 1.59 1.56 1.58 1.62 1.57 1.55 1.58 1.58 1.70 1.67 1.80 1.86 1.89 1.87 1.85 1.70 1.46 1.41 1.44 1.56 1.75 1.66 1.64 1.60 1.61 1.50 1.46 1.37 1.26
1.86 1.88 1.79 1.75 1.69 1.66 1.70 1.65 1.68 1.65 1.57 1.61 1.64 1.61 1.61 1.59 1.56 1.52 1.55 1.56 1.55 1.56 1.57 1.49 1.51 1.55 1.62 1.68 1.68 1.67 1.66 1.51 1.50 1.49 1.72 1.56 1.58 1.53 1.33 1.43 1.36 1.39 1.29

GFSMA_prec_pwat_171.txt.gz
Precipitable_Water
1.44 1.40 1.36 1.44 1.42 1.51 1.53 1.62 1.72 1.81 1.79 1.82 1.83 1.80 1.81 1.72 1.78 1.75 1.73 1.64 1.60 1.54 1.58 1.43 1.40 1.44 1.44 1.47 1.56 1.65 1.69 1.69 1.72 1.75 1.78 1.78 1.77 1.73 1.66 1.55 1.48 1.45 1.45
1.49 1.44 1.38 1.46 1.50 1.48 1.50 1.57 1.73 1.68 1.72 1.73 1.67 1.70 1.80 1.77 1.77 1.68 1.68 1.67 1.63 1.52 1.55 1.44 1.43 1.47 1.52 1.57 1.62 1.69 1.75 1.73 1.75 1.80 1.81 1.78 1.77 1.76 1.73 1.63 1.57 1.56 1.54
1.48 1.42 1.42 1.48 1.52 1.54 1.65 1.70 1.68 1.79 1.82 1.75 1.63 1.70 1.76 1.83 1.69 1.70 1.65 1.64 1.66 1.56 1.50 1.51 1.46 1.47 1.53 1.61 1.71 1.75 1.76 1.79 1.79 1.77 1.76 1.74 1.73 1.72 1.70 1.63 1.55 1.56 1.57
1.54 1.47 1.44 1.44 1.52 1.64 1.64 1.68 1.66 1.75 1.77 1.80 1.69 1.60 1.71 1.73 1.68 1.65 1.68 1.68 1.73 1.64 1.62 1.57 1.60 1.61 1.68 1.76 1.84 1.80 1.81 1.80 1.80 1.77 1.76 1.76 1.72 1.71 1.65 1.52 1.42 1.37 1.42
1.51 1.48 1.41 1.52 1.60 1.67 1.72 1.70 1.76 1.73 1.67 1.68 1.56 1.53 1.61 1.60 1.65 1.74 1.73 1.72 1.79 1.75 1.74 1.73 1.67 1.64 1.67 1.70 1.77 1.80 1.77 1.77 1.76 1.75 1.74 1.74 1.69 1.65 1.62 1.49 1.34 1.30 1.32
1.50 1.46 1.54 1.67 1.73 1.71 1.65 1.60 1.61 1.64 1.62 1.63 1.48 1.55 1.58 1.63 1.67 1.69 1.72 1.78 1.75 1.78 1.73 1.71 1.76 1.74 1.70 1.81 1.84 1.81 1.80 1.70 1.69 1.68 1.69 1.71 1.67 1.67 1.67 1.58 1.38 1.27 1.37
1.53 1.61 1.66 1.72 1.70 1.65 1.64 1.61 1.57 1.49 1.46 1.57 1.45 1.47 1.54 1.67 1.77 1.74 1.74 1.75 1.79 1.83 1.86 1.78 1.73 1.75 1.75 1.72 1.81 1.81 1.78 1.67 1.63 1.64 1.66 1.66 1.64 1.63 1.65 1.63 1.49 1.30 1.30
1.61 1.66 1.74 1.72 1.73 1.58 1.50 1.50 1.48 1.42 1.40 1.53 1.46 1.39 1.23 1.45 1.72 1.79 1.76 1.81 1.85 1.93 1.91 1.88 1.82 1.79 1.79 1.81 1.88 1.82 1.78 1.74 1.66 1.62 1.64 1.66 1.69 1.64 1.55 1.54 1.56 1.47 1.28
1.70 1.75 1.70 1.71 1.63 1.57 1.48 1.43 1.42 1.44 1.33 1.49 1.69 1.50 1.27 1.21 1.48 1.69 1.70 1.81 1.84 1.86 1.89 1.91 1.88 1.90 1.89 1.92 1.93 1.98 1.90 1.83 1.76 1.62 1.63 1.65 1.61 1.66 1.72 1.60 1.43 1.40 1.36
1.60 1.59 1.63 1.68 1.53 1.47 1.43 1.46 1.48 1.45 1.52 1.41 1.65 1.68 1.62 1.51 1.29 1.36 1.71 1.76 1.87 1.83 1.87 1.94 1.96 1.95 2.09 2.07 2.08 2.02 2.02 1.95 1.97 1.84 1.79 1.91 1.97 1.93 1.88 1.73 1.73 1.55 1.35
1.63 1.58 1.52 1.58 1.48 1.36 1.43 1.44 1.45 1.46 1.62 1.52 1.54 1.55 1.55 1.50 1.45 1.35 1.25 1.55 1.75 1.82 1.90 1.97 1.97 1.98 2.10 2.20 2.19 2.14 2.08 2.00 2.00 1.99 2.00 2.04 2.09 2.09 2.06 2.09 2.02 1.87 1.73
1.61 1.63 1.53 1.50 1.51 1.44 1.41 1.48 1.52 1.44 1.62 1.60 1.57 1.56 1.50 1.41 1.33 1.36 1.27 1.37 1.43 1.66 1.89 1.99 2.02 2.09 2.16 2.25 2.26 2.21 2.12 2.07 1.99 1.99 1.98 1.99 1.99 2.01 2.00 1.99 2.02 2.20 2.05
1.51 1.62 1.54 1.50 1.47 1.47 1.44 1.57 1.55 1.45 1.60 1.60 1.55 1.56 1.61 1.54 1.45 1.40 1.38 1.38 1.37 1.58 1.75 1.98 2.06 2.16 2.25 2.23 2.22 2.22 2.19 2.12 2.06 1.96 1.91 1.92 1.93 1.96 1.96 1.97 1.95 2.05 2.21
1.55 1.70 1.63 1.57 1.61 1.59 1.52 1.53 1.56 1.59 1.66 1.68 1.65 1.61 1.64 1.60 1.51 1.51 1.47 1.50 1.40 1.49 1.64 1.75 2.04 2.17 2.29 2.29 2.24 2.18 2.14 2.07 2.05 2.06 2.01 1.98 1.99 2.02 2.04 2.05 2.06 2.06 2.08
1.66 1.69 1.70 1.68 1.60 1.64 1.54 1.51 1.59 1.62 1.76 1.72 1.64 1.66 1.63 1.61 1.59 1.61 1.66 1.64 1.51 1.33 1.46 1.78 1.84 2.17 2.23 2.24 2.25 2.27 2.26 2.23 2.17 2.16 2.11 2.09 2.08 2.06 2.08 2.09 2.11 2.13 2.14
1.68 1.65 1.65 1.70 1.71 1.64 1.61 1.60 1.61 1.66 1.66 1.71 1.73 1.69 1.66 1.61 1.56 1.63 1.77 1.75 1.61 1.62 1.53 1.71 1.82 1.97 2.06 2.10 2.22 2.26 2.28 2.28 2.23 2.20 2.12 2.09 2.10 2.08 2.06 2.06 2.05 2.06 2.07
1.54 1.56 1.61 1.66 1.67 1.70 1.65 1.64 1.67 1.76 1.67 1.62 1.67 1.74 1.68 1.71 1.60 1.58 1.76 1.80 1.61 1.66 1.65 1.75 1.86 1.86 1.88 1.99 2.08 2.18 2.25 2.24 2.17 2.09 2.01 1.94 1.91 1.91 1.89 1.91 1.96 1.98 1.98
1.56 1.53 1.60 1.65 1.67 1.71 1.73 1.69 1.64 1.76 1.77 1.69 1.60 1.69 1.64 1.69 1.64 1.73 1.76 1.74 1.61 1.65 1.57 1.53 1.74 1.84 1.89 2.05 2.07 2.10 2.09 2.10 2.05 2.02 1.98 1.94 1.89 1.85 1.86 1.89 1.91 1.90 1.90
1.60 1.58 1.61 1.62 1.63 1.67 1.71 1.77 1.77 1.75 1.80 1.75 1.67 1.67 1.66 1.64 1.59 1.73 1.78 1.77 1.78 1.67 1.59 1.50 1.62 1.87 1.94 2.02 1.98 1.98 1.92 1.91 1.93 1.93 1.93 1.87 1.79 1.81 1.82 1.88 1.82 1.80 1.84
1.64 1.59 1.59 1.56 1.58 1.59 1.65 1.70 1.78 1.80 1.81 1.77 1.72 1.70 1.68 1.59 1.62 1.68 1.72 1.81 1.83 1.74 1.63 1.64 1.62 1.67 1.79 1.96 1.97 1.83 1.74 1.82 1.78 1.85 1.82 1.79 1.77 1.81 1.89 1.85 1.94 1.85 1.85
1.69 1.64 1.61 1.59 1.61 1.60 1.58 1.65 1.77 1.77 1.77 1.75 1.70 1.71 1.74 1.64 1.67 1.75 1.75 1.78 1.85 1.76 1.73 1.69 1.79 1.78 1.64 1.64 1.73 1.80 1.69 1.72 1.79 1.84 1.74 1.69 1.69 1.71 1.72 1.84 1.83 1.80 1.80
1.71 1.70 1.63 1.55 1.56 1.61 1.56 1.51 1.68 1.75 1.72 1.63 1.52 1.53 1.61 1.58 1.63 1.72 1.76 1.84 1.92 1.82 1.77 1.73 1.74 1.71 1.79 1.78 1.82 1.77 1.74 1.69 1.58 1.89 1.69 1.54 1.67 1.64 1.70 1.75 1.76 1.72 1.65
1.75 1.69 1.65 1.61 1.57 1.63 1.64 1.55 1.61 1.71 1.64 1.61 1.56 1.51 1.52 1.61 1.64 1.74 1.78 1.79 1.85 1.82 1.89 1.92 1.80 1.84 1.84 1.95 1.99 1.85 1.81 1.78 1.73 1.77 1.67 1.46 1.67 1.58 1.68 1.76 1.72 1.66 1.65
1.80 1.73 1.67 1.62 1.59 1.64 1.70 1.66 1.64 1.67 1.64 1.61 1.59 1.61 1.60 1.56 1.60 1.65 1.71 1.71 1.66 1.68 1.72 1.79 1.82 1.83 1.94 2.06 2.07 2.00 1.91 1.87 1.81 1.78 1.71 1.39 1.61 1.57 1.73 1.74 1.76 1.66 1.58
1.82 1.71 1.65 1.62 1.65 1.71 1.76 1.60 1.57 1.58 1.56 1.55 1.61 1.63 1.59 1.56 1.60 1.57 1.55 1.50 1.53 1.55 1.63 1.69 1.74 1.77 1.81 1.84 1.87 1.89 1.75 1.68 1.57 1.56 1.63 1.48 1.55 1.61 1.68 1.64 1.66 1.56 1.42
1.83 1.84 1.82 1.83 1.71 1.71 1.77 1.72 1.64 1.56 1.44 1.48 1.53 1.54 1.59 1.62 1.65 1.65 1.57 1.52 1.39 1.40 1.54 1.52 1.67 1.73 1.77 1.72 1.70 1.72 1.66 1.49 1.51 1.42 1.62 1.55 1.62 1.65 1.52 1.66 1.55 1.44 1.32

GFSMA_prec_pwat_174.txt.gz
Precipitable_Water
1.47 1.35 1.38 1.40 1.45 1.60 1.67 1.73 1.84 1.94 1.88 1.84 1.82 1.80 1.79 1.77 1.80 1.79 1.77 1.61 1.58 1.63 1.59 1.51 1.42 1.45 1.50 1.54 1.56 1.55 1.58 1.62 1.69 1.75 1.76 1.80 1.78 1.74 1.70 1.63 1.54 1.47 1.45
1.51 1.40 1.40 1.45 1.52 1.50 1.59 1.72 1.82 1.82 1.81 1.76 1.70 1.73 1.80 1.76 1.78 1.76 1.71 1.81 1.60 1.51 1.56 1.46 1.43 1.50 1.59 1.67 1.70 1.72 1.71 1.72 1.77 1.81 1.80 1.79 1.78 1.77 1.76 1.73 1.64 1.55 1.52
1.53 1.45 1.44 1.51 1.55 1.55 1.65 1.75 1.72 1.90 1.91 1.83 1.70 1.70 1.80 1.75 1.74 1.77 1.71 1.77 1.71 1.55 1.54 1.49 1.46 1.51 1.61 1.68 1.72 1.73 1.77 1.78 1.79 1.78 1.76 1.76 1.78 1.78 1.75 1.75 1.67 1.59 1.59
1.55 1.46 1.47 1.52 1.58 1.68 1.66 1.65 1.71 1.82 1.85 1.84 1.71 1.58 1.70 1.70 1.68 1.70 1.76 1.79 1.77 1.73 1.59 1.56 1.59 1.63 1.69 1.76 1.80 1.79 1.80 1.79 1.78 1.76 1.76 1.73 1.74 1.73 1.72 1.75 1.58 1.49 1.48
1.56 1.48 1.43 1.56 1.66 1.67 1.65 1.64 1.83 1.83 1.80 1.72 1.60 1.64 1.67 1.70 1.69 1.76 1.84 1.78 1.73 1.71 1.78 1.61 1.60 1.68 1.71 1.77 1.79 1.78 1.76 1.76 1.74 1.75 1.76 1.71 1.68 1.65 1.64 1.59 1.46 1.34 1.33
1.53 1.51 1.53 1.56 1.70 1.68 1.70 1.63 1.63 1.71 1.66 1.62 1.57 1.67 1.67 1.71 1.76 1.76 1.80 1.81 1.75 1.76 1.74 1.77 1.75 1.80 1.72 1.80 1.83 1.79 1.74 1.71 1.69 1.69 1.72 1.69 1.69 1.67 1.65 1.59 1.44 1.28 1.33
1.47 1.55 1.61 1.65 1.72 1.77 1.74 1.69 1.64 1.57 1.51 1.55 1.54 1.62 1.65 1.74 1.84 1.80 1.80 1.78 1.80 1.85 1.84 1.84 1.86 1.89 1.87 1.74 1.81 1.82 1.75 1.69 1.63 1.62 1.65 1.68 1.65 1.63 1.64 1.64 1.51 1.35 1.32
1.60 1.72 1.77 1.70 1.71 1.69 1.62 1.58 1.52 1.42 1.50 1.53 1.52 1.53 1.36 1.55 1.75 1.83 1.81 1.83 1.83 1.90 1.93 1.88 1.88 1.87 1.83 1.89 1.98 1.84 1.76 1.74 1.68 1.62 1.61 1.64 1.70 1.68 1.58 1.56 1.57 1.48 1.28
1.76 1.77 1.75 1.77 1.71 1.65 1.53 1.47 1.45 1.43 1.40 1.52 1.62 1.59 1.47 1.41 1.56 1.72 1.77 1.80 1.83 1.88 1.93 1.97 1.97 1.98 1.95 2.02 1.99 2.00 1.86 1.80 1.77 1.63 1.70 1.82 1.76 1.69 1.72 1.63 1.46 1.40 1.38
1.76 1.80 1.80 1.76 1.74 1.61 1.41 1.38 1.44 1.43 1.46 1.43 1.65 1.76 1.66 1.53 1.44 1.51 1.74 1.77 1.87 1.87 1.90 1.99 2.04 2.05 2.11 2.15 2.17 2.07 2.03 1.96 1.99 1.87 1.89 1.99 2.02 2.00 1.96 1.80 1.73 1.60 1.41
1.73 1.68 1.59 1.61 1.68 1.58 1.48 1.41 1.41 1.40 1.52 1.51 1.57 1.65 1.68 1.57 1.49 1.41 1.29 1.75 1.77 1.83 1.91 2.01 2.07 2.10 2.16 2.27 2.28 2.16 2.04 2.01 1.96 1.98 1.98 1.99 2.03 2.07 2.07 2.01 2.05 1.94 1.81
1.68 1.68 1.63 1.58 1.62 1.58 1.45 1.44 1.46 1.44 1.49 1.53 1.61 1.61 1.59 1.51 1.47 1.47 1.42 1.45 1.45 1.70 1.86 1.95 2.01 2.13 2.23 2.31 2.33 2.21 2.14 2.09 1.98 1.95 1.94 1.94 1.94 1.97 1.98 2.01 2.00 2.14 2.10
1.64 1.59 1.66 1.58 1.60 1.62 1.57 1.51 1.58 1.51 1.51 1.50 1.58 1.62 1.65 1.63 1.59 1.45 1.40 1.43 1.42 1.65 1.78 1.93 2.02 2.10 2.26 2.31 2.33 2.19 2.17 2.09 2.05 1.98 1.93 1.92 1.95 1.99 1.99 1.96 1.96 2.04 2.16
1.63 1.64 1.72 1.67 1.60 1.64 1.66 1.62 1.63 1.58 1.61 1.62 1.63 1.68 1.65 1.68 1.64 1.55 1.47 1.45 1.35 1.51 1.70 1.77 2.07 2.11 2.28 2.32 2.37 2.16 2.12 2.18 2.07 2.08 2.05 2.01 2.02 1.99 2.02 2.05 2.05 2.07 2.09
1.60 1.70 1.75 1.74 1.68 1.69 1.69 1.64 1.56 1.65 1.74 1.75 1.74 1.71 1.69 1.64 1.68 1.62 1.65 1.65 1.57 1.31 1.52 1.89 1.90 2.18 2.27 2.33 2.30 2.27 2.29 2.22 2.20 2.17 2.13 2.07 2.09 2.08 2.08 2.07 2.08 2.10 2.11
1.61 1.67 1.75 1.77 1.79 1.78 1.75 1.73 1.64 1.68 1.68 1.71 1.77 1.78 1.72 1.72 1.68 1.63 1.62 1.78 1.78 1.56 1.43 1.86 1.95 2.07 2.15 2.16 2.19 2.28 2.29 2.24 2.25 2.22 2.17 2.09 2.03 2.01 1.98 1.94 1.96 2.01 2.04
1.58 1.64 1.71 1.64 1.66 1.74 1.80 1.77 1.72 1.75 1.74 1.74 1.68 1.65 1.76 1.81 1.69 1.68 1.64 1.74 1.84 1.66 1.55 1.78 1.95 2.08 1.97 1.91 2.02 2.15 2.17 2.26 2.22 2.12 2.04 1.97 1.96 1.95 1.94 1.90 1.91 1.96 1.98
1.67 1.59 1.59 1.58 1.61 1.68 1.74 1.82 1.75 1.74 1.76 1.84 1.87 1.70 1.65 1.78 1.73 1.73 1.71 1.67 1.81 1.86 1.60 1.52 1.81 1.84 2.00 2.05 1.99 2.05 2.12 2.13 2.09 2.03 2.03 1.94 1.94 1.87 1.79 1.81 1.82 1.88 1.92
1.69 1.70 1.65 1.58 1.58 1.64 1.68 1.77 1.80 1.78 1.76 1.85 1.95 1.90 1.71 1.75 1.74 1.72 1.72 1.71 1.80 1.83 1.77 1.53 1.57 1.80 2.01 2.06 1.95 2.00 2.04 2.02 2.00 1.98 1.93 1.90 1.86 1.81 1.79 1.78 1.85 1.83 1.87
1.72 1.71 1.67 1.66 1.65 1.67 1.68 1.69 1.75 1.79 1.81 1.85 1.89 1.91 1.80 1.69 1.74 1.71 1.65 1.75 1.79 1.82 1.83 1.75 1.61 1.67 1.78 1.87 1.83 1.77 1.81 1.92 1.85 1.90 1.87 1.87 1.86 1.81 1.77 1.84 1.84 1.78 1.80
1.79 1.81 1.78 1.71 1.68 1.67 1.59 1.58 1.61 1.71 1.72 1.78 1.92 1.91 1.87 1.80 1.75 1.76 1.69 1.76 1.79 1.75 1.79 1.78 1.71 1.71 1.81 1.93 1.75 1.70 1.71 1.77 1.79 1.80 1.76 1.81 1.82 1.70 1.70 1.80 1.83 1.74 1.79
1.94 1.91 1.79 1.72 1.66 1.64 1.58 1.54 1.53 1.61 1.67 1.71 1.72 1.78 1.77 1.70 1.65 1.63 1.54 1.60 1.74 1.70 1.73 1.76 1.77 1.73 1.80 1.91 1.99 1.89 1.75 1.65 1.54 1.91 1.84 1.80 1.81 1.65 1.62 1.71 1.70 1.63 1.64
1.79 1.79 1.79 1.78 1.72 1.71 1.62 1.51 1.51 1.52 1.56 1.63 1.70 1.73 1.68 1.64 1.59 1.62 1.63 1.61 1.70 1.72 1.74 1.75 1.65 1.64 1.77 1.93 2.02 2.01 1.95 1.86 1.80 1.92 1.91 1.69 1.75 1.61 1.66 1.66 1.63 1.64 1.63
1.72 1.75 1.81 1.85 1.83 1.81 1.69 1.61 1.53 1.57 1.59 1.62 1.69 1.70 1.65 1.64 1.67 1.64 1.63 1.63 1.66 1.75 1.76 1.73 1.66 1.62 1.74 1.89 1.91 1.89 1.89 1.92 1.95 1.94 1.94 1.59 1.71 1.61 1.67 1.63 1.64 1.66 1.64
1.71 1.79 1.88 1.89 1.87 1.85 1.77 1.68 1.64 1.59 1.61 1.65 1.72 1.76 1.73 1.69 1.71 1.67 1.61 1.55 1.52 1.56 1.74 1.74 1.74 1.72 1.67 1.68 1.77 1.82 1.71 1.64 1.51 1.55 1.69 1.58 1.58 1.55 1.56 1.53 1.66 1.73 1.65
1.56 1.78 1.90 1.94 1.85 1.83 1.86 1.74 1.78 1.76 1.64 1.63 1.64 1.68 1.70 1.70 1.74 1.71 1.69 1.69 1.56 1.58 1.66 1.72 1.64 1.59 1.61 1.63 1.69 1.76 1.77 1.58 1.57 1.46 1.60 1.50 1.52 1.57 1.43 1.63 1.70 1.64 1.61